Who Was Utah's Most Improved Girls XC Runners?

This content requires a MileSplit Pro plan.
Join Now and select any plan for instant access!

MileSplit Pro
Join Now

Check out the time improvements of girls cross country runners in the state of Utah from the 2017 to 2018 seasons.
Athlete 2018 2017 Difference
Bailey Brinkerhoff 16:47.20 16:36.60 10.60
Samantha Nelson 16:58.80 19:08.20 ( 2:09.40 )
Anna Martin 17:15.00 17:53.10 ( 38.10 )
Trinity Schimbeck 17:40.10 18:06.90 ( 26.80 )
Karli Branch 17:41.40 17:35.10 6.30
Helena Miyazawa 17:42.10 17:47.60 ( 5.50 )
Chloe Kockler 17:42.50 18:02.10 ( 19.60 )
Ellie Lundgreen 17:43.20 18:19.06 ( 35.86 )
Elisabeth Ferrell 17:44.30 19:13.88 ( 1:29.58 )
Laurie Murphy 17:44.80 19:40.20 ( 1:55.40 )
Reagan Gardner 17:45.90 18:07.20 ( 21.30 )
Lily Poulton 17:47.00 17:40.90 6.10
Eliza Arrington 17:47.40 17:56.70 ( 9.30 )
Carlee Hansen 17:47.80 17:30.70 17.10
Jessica Hill 17:49.50 17:14.90 34.60
Heidi Sumsion 17:52.10 17:18.50 33.60
Alli Baker 17:55.10 18:19.80 ( 24.70 )
Harley Taylor 17:59.70 17:02.50 57.20
Sidney Preator 18:07.80 19:40.30 ( 1:32.50 )
Grace Burnett 18:08.00 18:31.50 ( 23.50 )
Arianna Steiner 18:08.90 20:34.30 ( 2:25.40 )
Sami Lee 18:11.30 18:27.50 ( 16.20 )
Mariah Skinner 18:12.90 18:38.20 ( 25.30 )
Lauren Leukenga 18:15.20 17:27.70 47.50
Abby Jensen 18:15.90 17:45.50 30.40
Ali Bybee 18:16.80 18:04.10 12.70
Kaysie Klemic 18:18.30 18:02.00 16.30
Megan Terry 18:19.30 18:43.87 ( 24.57 )
Kate Thomas 18:19.30 18:29.40 ( 10.10 )
Kalii Caldwell 18:19.30 17:25.20 54.10
Madison Seegmiller 18:20.20 19:28.66 ( 1:08.46 )
Trisha Thompson 18:21.50 19:45.70 ( 1:24.20 )
Hailey Kidd 18:22.20 19:58.90 ( 1:36.70 )
Shanee Harris 18:22.80 17:39.70 43.10
Bonita Gray 18:24.10 18:33.90 ( 9.80 )
Anna Sophia Rorrer Warren 18:25.00 20:15.30 ( 1:50.30 )
Mya Mckown 18:26.80 18:31.60 ( 4.80 )
Morgan Jensen 18:28.60 19:30.20 ( 1:01.60 )
Jane Fredrick 18:29.30 21:16.70 ( 2:47.40 )
Kate Allred 18:29.70 18:31.60 ( 1.90 )
Porshe Eismann 18:31.90 18:37.50 ( 5.60 )
Maddy Boulton 18:32.20 18:06.10 26.10
Hailey Odekirk 18:33.60 18:25.30 8.30
Rosalind Schraedel 18:35.60 19:09.88 ( 34.28 )
Anna Powell 18:41.30 18:43.90 ( 2.60 )
Kylah Ricks 18:41.60 18:41.90 ( 0.30 )
Malayna Steffensen 18:43.50 18:42.30 1.20
Elizibeth Wilcox 18:44.00 19:20.60 ( 36.60 )
Abbie Randall 18:44.10 19:04.00 ( 19.90 )
Taylor Smart 18:44.90 21:34.00 ( 2:49.10 )
Sydney Hedquist 18:45.80 18:57.59 ( 11.79 )
Madison Strasner 18:46.30 20:07.60 ( 1:21.30 )
Katie Crabtree 18:46.40 19:40.20 ( 53.80 )
Haley Rountree 18:46.50 18:35.20 11.30
Rachel Margetts 18:46.60 18:59.00 ( 12.40 )
Shelby Archer 18:46.60 19:12.30 ( 25.70 )
Aniya Bobo 18:47.10 18:30.53 16.57
AnnaBeth Templeman 18:47.40 18:16.10 31.30
Madison Patrick 18:48.10 19:43.40 ( 55.30 )
Bethany Blakey 18:48.60 20:12.20 ( 1:23.60 )
Michelle Christian 18:48.80 19:06.00 ( 17.20 )
Kate Richardson 18:49.20 19:06.00 ( 16.80 )
Rylee Holt 18:49.70 18:35.00 14.70
Abigail Gray 18:50.70 18:48.10 2.60
Allison Ryan 18:52.10 19:49.90 ( 57.80 )
Meredith Parker 18:52.60 19:52.90 ( 1:00.30 )
Samantha Herman 18:52.80 19:56.35 ( 1:03.55 )
Adelai Moore 18:53.10 19:27.90 ( 34.80 )
Monet Winger 18:53.20 18:44.20 9.00
Lily Nettesheim 18:55.90 19:00.40 ( 4.50 )
Sylvia Brown 18:56.00 18:44.50 11.50
Amanda Marchant 18:56.30 18:39.50 16.80
Kelsi Lindley 18:57.10 19:03.60 ( 6.50 )
Kallyn Chynoweth 18:57.20 19:29.60 ( 32.40 )
Kristi Deffner 18:58.30 19:02.50 ( 4.20 )
Katy Kelly 18:58.40 19:18.80 ( 20.40 )
Becca Romney 18:59.30 19:28.70 ( 29.40 )
Camilla Adams 19:00.70 21:02.20 ( 2:01.50 )
Abby Barrus 19:00.80 18:52.20 8.60
Hallie Kemp 19:01.00 19:17.40 ( 16.40 )
Bayleigh Redd 19:02.30 19:54.50 ( 52.20 )
Madi Hafen 19:02.80 18:07.40 55.40
Mackenzie Hess 19:02.80 18:30.80 32.00
Taylia Norris 19:03.00 18:15.50 47.50
Makaila Runnels 19:04.30 19:57.70 ( 53.40 )
Madison Hess 19:05.80 18:18.30 47.50
Brooke Call 19:06.20 20:11.60 ( 1:05.40 )
Audrey Camp 19:06.30 19:06.60 ( 0.30 )
Sydney Stout 19:06.80 19:08.60 ( 1.80 )
Avery Baldwin 19:08.50 19:23.00 ( 14.50 )
Brooklyn Hopkins 19:08.80 19:37.00 ( 28.20 )
Ella Park 19:08.90 18:50.50 18.40
Mackenzie Meldrum 19:09.00 19:34.90 ( 25.90 )
Elizabeth Zwahlen 19:09.40 19:35.00 ( 25.60 )
Ashley Lagat 19:09.50 19:17.90 ( 8.40 )
Hailey Hess 19:09.90 18:45.90 24.00
Meghan Hunter 19:10.50 18:32.10 38.40
Maelyn Mace 19:11.30 20:44.80 ( 1:33.50 )
Sheilah Cheruiyot 19:12.00 19:14.40 ( 2.40 )
Abby Rasmussen 19:12.10 19:01.20 10.90
Lydia Felix 19:12.40 19:44.10 ( 31.70 )
Kaitlyn Gee 19:12.50 19:20.30 ( 7.80 )
Alexia Larsen 19:12.60 19:43.80 ( 31.20 )
Makena Harbertson 19:13.40 20:03.00 ( 49.60 )
Madison White 19:13.60 20:25.10 ( 1:11.50 )
Baylee Vogler 19:13.80 20:25.80 ( 1:12.00 )
Gracie Clements 19:14.70 19:29.60 ( 14.90 )
Saylor Lighten 19:15.40 20:25.25 ( 1:09.85 )
Eliza Beazer 19:15.80 18:43.80 32.00
Maura Williams 19:18.90 19:14.97 3.93
Eliza Lindstrom 19:19.00 19:03.60 15.40
Lizzie Ware 19:19.10 19:26.60 ( 7.50 )
Maryn Granger 19:19.60 20:05.00 ( 45.40 )
Brooke Larson 19:20.20 19:09.50 10.70
Blaklee Butler 19:20.50 19:21.40 ( 0.90 )
Samantha Olson 19:20.50 19:42.62 ( 22.12 )
Mackay Hardy 19:22.06 19:17.91 4.15
Sophia Loose 19:22.30 20:03.70 ( 41.40 )
Lexi Jonart 19:22.60 19:22.40 0.20
Hannah Bahr 19:23.00 20:51.20 ( 1:28.20 )
Jennica Robinson 19:23.75 20:01.44 ( 37.69 )
Elizabeth Pike 19:23.90 20:38.00 ( 1:14.10 )
Sarah Merrill 19:24.20 20:23.90 ( 59.70 )
Katie Peterson 19:24.50 20:06.10 ( 41.60 )
Brooke Mashburn 19:24.70 19:28.50 ( 3.80 )
Bella Porter 19:24.80 20:36.20 ( 1:11.40 )
Pyper Holt 19:25.00 20:31.90 ( 1:06.90 )
Kaylee Anderson 19:25.00 19:46.70 ( 21.70 )
Madi Strasner 19:25.70 20:10.70 ( 45.00 )
Emma Barnett 19:25.80 19:26.90 ( 1.10 )
Mikaeli Hill 19:26.00 21:21.10 ( 1:55.10 )
Abbey Blair 19:26.00 19:09.50 16.50
Addi Baker 19:26.50 20:02.10 ( 35.60 )
Emily Spaulding 19:26.60 20:43.50 ( 1:16.90 )
Abi Waddoups 19:28.40 19:46.62 ( 18.22 )
Sydney Lapine 19:29.10 19:07.60 21.50
Hallie Morris 19:29.88 20:28.91 ( 59.03 )
Maya Connolly 19:30.10 20:54.30 ( 1:24.20 )
Kimmie Winward 19:30.50 20:06.10 ( 35.60 )
Brooklynn Gee 19:31.30 20:47.90 ( 1:16.60 )
Whitney Walpole 19:32.80 20:44.40 ( 1:11.60 )
Jaden Singleton 19:32.90 20:43.60 ( 1:10.70 )
Danielle Shock 19:34.10 19:16.70 17.40
Ashley Faragher 19:34.90 20:07.00 ( 32.10 )
Hannah Pope 19:35.00 19:52.96 ( 17.96 )
Katelin Chipman 19:35.10 20:29.70 ( 54.60 )
Kaylee Gilbert 19:35.30 20:49.30 ( 1:14.00 )
Victoria Galley 19:35.40 19:30.00 5.40
Fearnley Grace 19:36.30 21:26.20 ( 1:49.90 )
Serra Hook 19:36.60 19:49.60 ( 13.00 )
Anna Baird 19:36.80 19:18.40 18.40
Shelby Stubbs 19:37.50 20:26.90 ( 49.40 )
Chloe Caldwell 19:37.80 21:22.70 ( 1:44.90 )
Kinley Spaulding 19:38.30 19:24.70 13.60
Mia Legas 19:40.30 21:38.00 ( 1:57.70 )
Jada Chepkwurui 19:40.30 20:11.00 ( 30.70 )
Kailey Gilbert 19:40.50 21:31.20 ( 1:50.70 )
Madi Tartaro 19:41.10 19:26.80 14.30
Allison Ely 19:41.20 20:39.60 ( 58.40 )
Rachel Winterton 19:41.20 19:05.00 36.20
Hailey Ellis 19:42.00 20:08.90 ( 26.90 )
Jaylee Sorenson 19:42.20 19:40.10 2.10
Abby Benson 19:42.30 19:13.60 28.70
Shailee Hansen 19:42.60 20:08.87 ( 26.27 )
Makell Corry 19:42.80 20:47.00 ( 1:04.20 )
Emily Mann 19:43.20 19:17.50 25.70
Katelyn Howe 19:43.70 20:50.60 ( 1:06.90 )
Jennifer Thomas 19:43.80 22:00.56 ( 2:16.76 )
Cydney Shields 19:44.30 20:06.70 ( 22.40 )
Rachel Slaugh 19:44.50 19:29.60 14.90
Abbie Fuhriman 19:45.50 20:22.10 ( 36.60 )
Paige Rousey 19:45.70 19:35.00 10.70
Brie Steele 19:47.00 20:44.50 ( 57.50 )
Kenzie Bybee 19:47.00 20:05.80 ( 18.80 )
Makenzi Smith 19:48.50 19:57.30 ( 8.80 )
Grace Baker 19:50.00 21:38.40 ( 1:48.40 )
Regan Hansen 19:51.00 20:31.60 ( 40.60 )
Grace Drury 19:52.00 22:02.10 ( 2:10.10 )
Jocelyn Summers 19:52.00 24:35.91 ( 4:43.91 )
Lily Evans 19:52.30 19:41.40 10.90
Elena Allen 19:52.50 19:13.50 39.00
Shelbie Hickman 19:52.60 20:47.40 ( 54.80 )
Mckenna Rogers 19:52.70 19:25.50 27.20
Anna Scholes 19:54.00 20:11.70 ( 17.70 )
Brynn Black 19:54.10 21:01.20 ( 1:07.10 )
Makayla Komer 19:54.20 18:49.80 1:04.40
Brea Bulkley 19:55.00 20:08.50 ( 13.50 )
Sadona Hansen 19:55.30 33:53.20 ( 13:57.90 )
Avery Low 19:56.53 20:08.56 ( 12.03 )
Rachel Barton 19:56.60 19:54.80 1.80
Sidney Snow 19:56.90 19:59.70 ( 2.80 )
Seonna Southwick 19:56.90 19:23.60 33.30
Elaina Halls 19:57.20 20:14.20 ( 17.00 )
Armelia Johnson 19:57.70 20:52.80 ( 55.10 )
Brooke Reed 19:58.20 22:02.80 ( 2:04.60 )
Regan Abbott 19:58.40 20:05.31 ( 6.91 )
Morgan Scott 19:59.60 21:19.20 ( 1:19.60 )
Bailey Brown 19:59.90 19:58.20 1.70
Jacelin Clayton 20:01.70 19:20.40 41.30
Emily Chatfield 20:02.60 20:20.80 ( 18.20 )
Jenna Lund 20:02.70 20:50.28 ( 47.58 )
Allie Green 20:03.60 19:36.80 26.80
Cassidy Elmont 20:05.40 20:41.60 ( 36.20 )
Abbygale Schooley 20:05.50 23:23.10 ( 3:17.60 )
Brylee Wilcox 20:06.00 20:06.60 ( 0.60 )
Samantha Stokes 20:06.30 18:08.30 1:58.00
Grace Jenkins 20:06.70 20:43.70 ( 37.00 )
Holly Johansen 20:07.40 20:24.60 ( 17.20 )
Erica Davis 20:09.00 22:26.30 ( 2:17.30 )
Sydni Smith 20:09.00 20:51.75 ( 42.75 )
Taylor Hancey 20:09.00 20:59.50 ( 50.50 )
Christina Wood 20:09.10 19:24.90 44.20
Marlie Taylor 20:09.50 19:20.20 49.30
Abby Gray 20:09.79 22:47.40 ( 2:37.61 )
Gentry Pierce 20:10.00 19:35.40 34.60
Joelle Spilker 20:10.30 20:44.00 ( 33.70 )
Audrey Iverson 20:11.00 20:21.90 ( 10.90 )
Megan Allart 20:11.90 19:56.31 15.59
Erika Olson 20:11.90 18:49.50 1:22.40
Sarah Snow 20:13.30 19:12.90 1:00.40
Emma Haddock 20:13.90 21:46.30 ( 1:32.40 )
Jenna Chariton 20:13.90 20:05.00 8.90
Jamie Holt 20:14.50 20:48.80 ( 34.30 )
Mackenna Doilney 20:14.70 20:01.03 13.67
Jerilynn Egnew 20:15.40 20:11.80 3.60
Kaisa Arnell 20:16.00 21:01.50 ( 45.50 )
Geneva Humbert 20:16.00 19:56.40 19.60
Macie Lee 20:16.60 20:42.40 ( 25.80 )
Alivia Scoresby 20:17.10 21:42.70 ( 1:25.60 )
Miranda Allen 20:17.50 20:10.50 7.00
Rebecca Teeples 20:17.60 20:11.40 6.20
Brinley Hess 20:17.80 19:29.90 47.90
Madelyn King 20:18.20 20:37.80 ( 19.60 )
Lane Chipman 20:18.70 20:16.90 1.80
Olivia Penrod 20:19.00 21:48.20 ( 1:29.20 )
Katie Rex 20:19.00 20:03.30 15.70
Hallie Noorda 20:20.40 21:10.20 ( 49.80 )
Chasity Munoz 20:20.40 20:09.00 11.40
Lauren Hancey 20:20.70 21:01.80 ( 41.10 )
Jenna Boyer 20:21.10 21:36.50 ( 1:15.40 )
Izzy Wall 20:21.30 19:47.60 33.70
Susanna Bergeson 20:22.00 19:54.60 27.40
Callie Morgan 20:22.30 20:48.00 ( 25.70 )
Sadie Lehnhof 20:23.00 21:17.00 ( 54.00 )
Lainie Childers 20:23.10 22:29.81 ( 2:06.71 )
Savanna Dorrough 20:23.40 21:40.90 ( 1:17.50 )
Janessa Finch 20:23.90 19:57.00 26.90
Bailey Kealamakia 20:24.20 20:30.44 ( 6.24 )
Brooke Thomas 20:25.90 19:16.70 1:09.20
Ashlyn Patterson 20:27.10 19:45.90 41.20
Sedona Hansen 20:27.20 21:15.10 ( 47.90 )
Savannah Stouffer 20:27.20 21:09.80 ( 42.60 )
Josie Marshall 20:27.70 21:51.70 ( 1:24.00 )
Emily Wallgren 20:27.80 21:14.40 ( 46.60 )
Hope Smith 20:28.00 22:14.28 ( 1:46.28 )
Madalyn Steffensen 20:28.10 22:15.70 ( 1:47.60 )
Lindsey Palmer 20:28.20 21:48.70 ( 1:20.50 )
Brynne Macwilliams 20:29.00 21:34.60 ( 1:05.60 )
Callie Barker 20:29.80 20:38.00 ( 8.20 )
Lyndee Limburg 20:29.90 20:13.60 16.30
Allison Brown 20:30.70 20:29.00 1.70
Ellie Anderson 20:31.00 22:16.09 ( 1:45.09 )
Juliana Banks 20:32.90 21:03.90 ( 31.00 )
Emily Gunn 20:33.60 20:58.20 ( 24.60 )
Akaydeh Livingston 20:33.60 20:22.60 11.00
Isabelle Smith 20:34.30 21:10.80 ( 36.50 )
Hannah Hunt 20:34.62 22:44.18 ( 2:09.56 )
Emmalee Peterson 20:34.90 21:01.70 ( 26.80 )
Madisyn Scoville 20:35.00 21:09.70 ( 34.70 )
Melanie Gomez 20:36.00 19:35.30 1:00.70
Natalie O'neil 20:36.20 20:06.60 29.60
Alissa Allen 20:36.60 21:24.70 ( 48.10 )
Marina Brawand 20:36.80 19:49.20 47.60
Margi Carter 20:37.30 20:40.90 ( 3.60 )
Rachel Ball 20:37.40 22:37.19 ( 1:59.79 )
Julia Shumway 20:37.50 19:50.00 47.50
Ali Hirt 20:37.90 21:54.24 ( 1:16.34 )
Kelsey Lassiter 20:38.20 21:14.90 ( 36.70 )
Anna McCullough 20:38.50 21:15.60 ( 37.10 )
Rachel Kinikini 20:38.90 20:14.00 24.90
Kaysha Peterson 20:39.10 22:15.50 ( 1:36.40 )
Jessica Anderson 20:39.40 22:36.90 ( 1:57.50 )
Amanda Goddard 20:39.90 19:57.00 42.90
Kimball Clements 20:40.00 20:29.30 10.70
Anna Carter 20:40.40 19:30.30 1:10.10
Libby Brooks 20:40.60 21:13.40 ( 32.80 )
Elizabeth Dove 20:42.84 20:57.25 ( 14.41 )
Makayla Harlin 20:42.90 21:21.60 ( 38.70 )
Lauren Heninger 20:43.00 22:03.20 ( 1:20.20 )
Molly Jensen 20:43.70 20:53.80 ( 10.10 )
Jane Hansen 20:44.96 22:58.30 ( 2:13.34 )
Kate Cooper 20:45.10 20:11.30 33.80
Sami Eberhardt 20:45.80 22:27.98 ( 1:42.18 )
Madison Palmer 20:45.90 20:36.10 9.80
Shelby Oraskovich 20:46.50 21:48.90 ( 1:02.40 )
Felicia Barcinas 20:47.09 21:45.62 ( 58.53 )
Brooklyn Smith 20:47.30 20:44.40 2.90
Rebekah Daniels 20:48.00 21:15.30 ( 27.30 )
Brook Stratton 20:48.20 20:54.50 ( 6.30 )
Makayla Lawson 20:48.50 20:07.40 41.10
Rylie Dutson 20:48.53 20:09.00 39.53
Jessica Glaser 20:49.30 19:57.30 52.00
Anika Scherer 20:49.40 21:00.50 ( 11.10 )
Kayla Reich 20:49.50 21:27.60 ( 38.10 )
Sadie Schenk 20:50.40 20:10.00 40.40
Kennedi Schimbeck 20:50.50 20:20.80 29.70
Sariah Jackson 20:50.81 20:52.70 ( 1.89 )
Emilee Vick 20:52.40 20:43.10 9.30
Ember Moat 20:52.80 19:56.63 56.17
Sami Adamson 20:53.80 21:39.20 ( 45.40 )
Amanda Hatch 20:54.10 20:51.80 2.30
Becca Cryer 20:54.30 21:02.10 ( 7.80 )
Grace Broadbear 20:55.00 21:45.30 ( 50.30 )
Eliza Livingston 20:55.80 23:24.40 ( 2:28.60 )
Emilea Anderson 20:56.40 20:15.00 41.40
Natalie Walker 20:57.30 19:58.10 59.20
Alysa Lindley 20:57.50 21:17.80 ( 20.30 )
Hannah Young 20:57.80 19:04.60 1:53.20
Mathilde Oscarson 20:57.80 26:13.40 ( 5:15.60 )
Macie Barney 20:58.00 18:06.30 2:51.70
Remy Nash 20:59.00 20:37.64 21.36
Allison Young 20:59.60 22:48.90 ( 1:49.30 )
Kaiya Barker 20:59.80 21:14.30 ( 14.50 )
Mallory Mccarter 21:01.60 24:10.20 ( 3:08.60 )
Faith Amos 21:02.20 20:39.80 22.40
Abby Murphy 21:02.40 22:28.30 ( 1:25.90 )
Makenzie Lawson 21:02.60 21:01.70 0.90
Kathya Guzman 21:02.60 22:11.10 ( 1:08.50 )
Jadyn Rees 21:03.50 20:04.10 59.40
Avalon Marker 21:03.90 21:03.20 0.70
Abigail Israelsen 21:04.60 20:58.70 5.90
Megan Spence 21:05.00 22:26.00 ( 1:21.00 )
Abby Weyand 21:05.50 20:21.80 43.70
Isabelle Barlow 21:06.20 20:41.10 25.10
Aspen Hodlmair 21:07.20 21:38.10 ( 30.90 )
Hope Miller 21:07.60 21:29.10 ( 21.50 )
Jocelyn Lund 21:08.60 20:06.30 1:02.30
Melody Anderson 21:09.30 21:31.20 ( 21.90 )
Ellie Anderson 21:09.40 22:10.00 ( 1:00.60 )
Aspen Workman 21:10.10 21:11.20 ( 1.10 )
Paige Sieverts 21:10.30 20:59.11 11.19
Tilly Vasquez 21:10.80 20:25.00 45.80
Kaylee Long 21:10.90 22:41.00 ( 1:30.10 )
Megan Ballard 21:11.00 21:35.50 ( 24.50 )
Elizabeth Judd 21:13.03 21:26.00 ( 12.97 )
Sadie Robb 21:13.34 22:33.44 ( 1:20.10 )
Stephanie Burnham 21:13.70 20:56.28 17.42
Maddie Bossarte 21:14.10 20:23.70 50.40
Malina Srianan 21:15.30 24:53.40 ( 3:38.10 )
Rebecca Cromar 21:15.60 20:24.60 51.00
Mia Horne 21:15.60 20:53.40 22.20
Purity Kattam 21:16.00 22:35.00 ( 1:19.00 )
Rebekah Kinikini 21:16.10 21:49.50 ( 33.40 )
Lauren Mcarthur 21:17.30 20:17.20 1:00.10
Kiely Rasmussen 21:18.10 21:32.50 ( 14.40 )
Ashlyn Baker 21:18.20 19:43.80 1:34.40
Isabella Van Brock 21:19.20 20:59.70 19.50
Kimberly Birt 21:19.40 22:21.20 ( 1:01.80 )
Anna Thomas 21:20.70 24:34.70 ( 3:14.00 )
Sarah Hull 21:21.10 22:27.60 ( 1:06.50 )
Sarah Kurtz 21:21.30 22:22.40 ( 1:01.10 )
Rachel Rosenberg 21:21.90 21:30.90 ( 9.00 )
Sydney Vivian 21:23.20 23:13.40 ( 1:50.20 )
Skylnn Humble 21:23.80 21:24.10 ( 0.30 )
Elisabeth Daniels 21:24.00 21:05.70 18.30
Emily Fielding 21:24.10 21:05.30 18.80
Victoria Price 21:25.60 21:29.50 ( 3.90 )
Cari Goddard 21:26.00 21:54.00 ( 28.00 )
Hannah Jorgensen 21:26.70 21:59.80 ( 33.10 )
Ella Vitek 21:28.00 20:15.30 1:12.70
Brynlee Bartlome 21:28.60 20:53.80 34.80
Mikaela Beck 21:28.84 21:21.60 7.24
Gorgeous Lee 21:29.30 23:38.60 ( 2:09.30 )
Alyse Searle 21:30.60 22:26.09 ( 55.49 )
Gracie Douglas 21:30.80 21:53.30 ( 22.50 )
Kiah Muramoto 21:31.10 22:19.10 ( 48.00 )
Isabella Brower 21:31.20 21:18.70 12.50
Rakell Heaton 21:31.30 20:46.00 45.30
Sophie Chandler 21:31.80 20:56.70 35.10
Sydney Barney 21:32.30 21:31.00 1.30
Kaitlyn Jensen 21:32.40 21:53.30 ( 20.90 )
Kate Marler 21:33.30 23:06.90 ( 1:33.60 )
Whitney Scheffield 21:34.20 23:11.40 ( 1:37.20 )
Emily Hawkes 21:34.80 22:37.00 ( 1:02.20 )
Hailey Rigby 21:36.40 21:26.10 10.30
Lydia Petersen 21:36.40 23:00.00 ( 1:23.60 )
Addison Romney 21:37.00 22:21.60 ( 44.60 )
Hannah Conrad 21:37.10 19:45.90 1:51.20
Jessica Tyler 21:37.30 23:17.00 ( 1:39.70 )
Rachel Nielsen 21:37.70 20:28.21 1:09.49
Faythe Evans 21:37.70 22:29.50 ( 51.80 )
Bell Samantha 21:38.12 23:37.75 ( 1:59.63 )
Isabella Pincock 21:38.34 21:57.34 ( 19.00 )
Remington Nash 21:38.50 19:27.00 2:11.50
Rachel Barker 21:38.70 21:40.50 ( 1.80 )
Maci Sorensen 21:38.80 22:31.80 ( 53.00 )
Courtney Furniss 21:39.20 21:17.70 21.50
Tiea Paschal 21:39.30 21:30.90 8.40
Julie Starr 21:39.40 22:46.30 ( 1:06.90 )
Madelin Squire 21:39.60 22:47.10 ( 1:07.50 )
Desiree Garcia 21:39.80 22:28.70 ( 48.90 )
Kaylee Glover 21:39.90 21:02.30 37.60
Cambrie Martell 21:40.50 22:11.90 ( 31.40 )
Morgan Mason 21:40.70 20:43.30 57.40
Jody Sagers 21:40.80 22:19.20 ( 38.40 )
Emma Evans 21:41.50 25:21.10 ( 3:39.60 )
Tory Peters 21:42.50 21:33.70 8.80
Taylor Alger 21:42.60 21:34.20 8.40
Grace Butler 21:42.70 22:21.30 ( 38.60 )
Genesis Wunderlich 21:42.88 21:40.03 2.85
Madison Mehrley 21:43.30 22:47.00 ( 1:03.70 )
Alison Jones 21:43.72 19:35.60 2:08.12
Heather Feeny 21:43.80 20:32.50 1:11.30
Elisa Boehm 21:44.20 21:28.30 15.90
Brynn Squires 21:44.40 21:03.10 41.30
Hayley Matthews 21:45.20 27:49.80 ( 6:04.60 )
Natalie Light 21:45.50 22:24.10 ( 38.60 )
Melanie Collins 21:46.30 23:35.33 ( 1:49.03 )
Kierra Allen 21:46.97 21:37.50 9.47
Dakota Robinson 21:48.70 22:23.74 ( 35.04 )
Abigail Cannon 21:48.80 20:17.10 1:31.70
Kylee Brown 21:49.10 23:02.10 ( 1:13.00 )
Katie Killpack 21:50.20 21:33.80 16.40
Abigayle Kendell 21:50.60 23:31.70 ( 1:41.10 )
Amelia Hunter 21:51.00 22:29.80 ( 38.80 )
Alena Starks 21:51.30 19:52.62 1:58.68
Haleigh Hansen 21:51.50 21:13.10 38.40
Kennedy Kawaguchi 21:52.30 23:14.00 ( 1:21.70 )
Sydney Black 21:53.00 24:25.60 ( 2:32.60 )
Oaklie Hansen 21:53.10 22:11.10 ( 18.00 )
Alicia Smith 21:53.60 21:43.30 10.30
Madison Walker 21:55.00 21:57.00 ( 2.00 )
Chelise Murdock 21:55.30 24:47.00 ( 2:51.70 )
Vanya Do 21:55.40 22:43.50 ( 48.10 )
Ashley Lisonbee 21:55.40 23:07.30 ( 1:11.90 )
Mckenzie Gladding 21:56.20 21:42.50 13.70
Kayley Kerr 21:56.53 20:05.20 1:51.33
Linzy Flinders 21:56.90 20:00.10 1:56.80
Mia Giallorenzi 21:57.10 21:55.84 1.26
Olivia Packer 21:57.30 22:14.50 ( 17.20 )
Camri Fischer 21:57.90 21:44.80 13.10
Elizibeth Thompson 21:58.40 21:22.30 36.10
Anna Whitmore 21:59.10 23:23.41 ( 1:24.31 )
Brooke Hansen 21:59.84 19:27.90 2:31.94
Olivia Wells 22:00.20 22:14.50 ( 14.30 )
Paige Nguyen 22:00.70 21:55.00 5.70
Cassidy Fife 22:02.00 21:11.50 50.50
Abby Lundberg 22:02.20 21:27.90 34.30
Kara Hastings 22:02.50 21:37.40 25.10
Mikayla Holiday 22:03.44 22:18.20 ( 14.76 )
Daniella Williams 22:03.60 22:33.40 ( 29.80 )
Grace Neal 22:04.40 23:45.90 ( 1:41.50 )
Megan Woodward 22:05.00 22:17.60 ( 12.60 )
Genesis Robles 22:05.60 22:38.30 ( 32.70 )
Kaelyn Fusselman 22:06.70 24:31.90 ( 2:25.20 )
Maddy Smith 22:07.10 22:21.90 ( 14.80 )
Brianna Farnsworth 22:07.30 22:06.10 1.20
Kaleigh Glauser 22:07.70 22:05.00 2.70
Josie Wright 22:08.00 21:47.60 20.40
Maren Street 22:08.10 20:40.00 1:28.10
Eden Beazer 22:08.50 21:10.40 58.10
Brynlee Fish 22:08.70 21:58.50 10.20
Natalia Warren 22:09.00 21:49.00 20.00
Madison Freestone 22:10.00 24:27.20 ( 2:17.20 )
Emilee Smith 22:10.40 29:52.70 ( 7:42.30 )
Barbara Gunter 22:10.60 21:49.10 21.50
Kensie Lafferty 22:10.90 22:34.40 ( 23.50 )
Sarah Buening 22:11.30 19:57.00 2:14.30
Sadie Starkey 22:12.40 23:59.10 ( 1:46.70 )
Jane Anderson 22:13.12 20:43.10 1:30.02
Angel Olson 22:13.59 23:29.12 ( 1:15.53 )
Anna Rasmussen 22:13.70 22:11.38 2.32
Aliza Woolsey 22:14.40 22:45.80 ( 31.40 )
Christina Truong 22:14.70 22:22.50 ( 7.80 )
Felicity Williams 22:15.00 22:46.00 ( 31.00 )
Daisy Linford 22:15.20 23:05.40 ( 50.20 )
Abigail Lundberg 22:15.90 21:58.50 17.40
Serra St. Clair 22:16.78 24:14.70 ( 1:57.92 )
Anja Cieslewicz 22:16.90 24:25.50 ( 2:08.60 )
Rachel Muhlestein 22:17.00 23:22.10 ( 1:05.10 )
Rebekah Preston 22:17.30 22:29.50 ( 12.20 )
Lydia Pugh 22:17.30 24:08.62 ( 1:51.32 )
Sarah Winters 22:19.50 22:20.90 ( 1.40 )
Camille Ericksen 22:21.00 21:40.40 40.60
Grace Brown 22:21.10 23:44.40 ( 1:23.30 )
Grace Christensen 22:22.30 23:25.60 ( 1:03.30 )
Ashley Min 22:23.10 24:12.00 ( 1:48.90 )
Emily Poulsen 22:23.30 21:28.10 55.20
Morgan Ashmead 22:23.34 23:15.78 ( 52.44 )
Chloe Child 22:23.90 22:20.60 3.30
Joesi Rowley 22:24.10 25:13.70 ( 2:49.60 )
Megan Muir 22:24.30 22:11.30 13.00
Kelli Harker 22:25.20 21:31.60 53.60
Zoey Edgmon 22:26.02 21:52.97 33.05
Adalynn Sheffield 22:26.50 21:45.10 41.40
Trichell Silas 22:26.72 22:59.80 ( 33.08 )
Elise Burton 22:26.80 23:15.30 ( 48.50 )
Maddy Maxwell 22:27.00 20:41.60 1:45.40
Alexis Dietrick 22:27.40 21:52.40 35.00
Kylie Goff 22:28.10 22:47.00 ( 18.90 )
Sydnie Zundel 22:28.40 24:51.90 ( 2:23.50 )
Allie Boyer 22:28.50 23:15.80 ( 47.30 )
Ellie Romero 22:28.60 23:31.10 ( 1:02.50 )
Morgan Mccleary 22:28.75 22:13.10 15.65
Macy Udy 22:28.80 23:49.30 ( 1:20.50 )
Christie Seamons 22:28.80 21:49.60 39.20
Kyana Swanson 22:29.00 21:32.30 56.70
Kilia Brawand 22:29.20 21:42.20 47.00
Camille Waymont 22:29.50 21:43.30 46.20
Gabrielle Parker 22:30.00 22:02.00 28.00
Alyx Scheetz 22:30.30 22:46.90 ( 16.60 )
Makayla Bell 22:30.70 23:38.30 ( 1:07.60 )
Kaylee Stettler 22:30.70 25:47.40 ( 3:16.70 )
Addy Rich 22:31.90 21:06.20 1:25.70
Lauren Cox 22:33.20 27:11.90 ( 4:38.70 )
Kendyl Jakins 22:33.30 22:21.40 11.90
Whitlee Rosquist 22:33.60 22:32.00 1.60
Juliet Tayler 22:34.50 23:02.70 ( 28.20 )
Decker Claire 22:35.00 22:27.20 7.80
MaKayla McCurdy 22:35.40 23:33.20 ( 57.80 )
Teanna Vigil 22:36.00 24:42.72 ( 2:06.72 )
Olivia Atkin 22:36.20 20:45.30 1:50.90
Lindsay Riches 22:37.80 23:46.60 ( 1:08.80 )
Celeste Hilllhouse 22:37.90 22:22.47 15.43
Rachel Ballard 22:38.70 22:44.50 ( 5.80 )
Hailey Smith 22:38.80 25:08.60 ( 2:29.80 )
Krissy Wheeler 22:40.75 21:43.80 56.95
Becca Mathis 22:42.00 20:12.60 2:29.40
Aimee Davenport 22:42.50 23:08.90 ( 26.40 )
Brynn Webster 22:43.20 21:56.19 47.01
Kat Hall 22:44.00 21:33.60 1:10.40
Ella Edgley 22:45.70 23:13.30 ( 27.60 )
Cat Webster 22:45.80 19:11.39 3:34.41
Corryn Anderson 22:46.40 22:29.10 17.30
Ellie Doxey 22:46.40 22:01.00 45.40
Ashley Barrett 22:46.50 22:08.30 38.20
Katie Freestone 22:46.50 22:59.20 ( 12.70 )
Maelee Allen 22:48.00 25:08.94 ( 2:20.94 )
Julia Light 22:48.80 24:16.10 ( 1:27.30 )
Amy Robinson 22:48.90 22:32.10 16.80
Lily Starley 22:49.00 21:49.30 59.70
Molli Eaton 22:49.10 21:51.70 57.40
Brooklyn Shepherd 22:49.44 25:41.90 ( 2:52.46 )
Abby Ruegner 22:50.40 24:39.40 ( 1:49.00 )
Brooke Searle 22:50.70 23:12.10 ( 21.40 )
Carli Begay 22:50.90 21:53.70 57.20
Abby Langston 22:51.00 21:14.90 1:36.10
Annie Williams 22:51.10 24:00.44 ( 1:09.34 )
Morgan Egbert 22:51.12 22:03.72 47.40
Emma Beesley 22:51.30 22:42.10 9.20
Bahazhoni Filfred 22:52.01 24:16.50 ( 1:24.49 )
Katie Brotherson 22:53.60 22:31.50 22.10
Sadie Farnsworth 22:53.80 23:57.00 ( 1:03.20 )
Sierra Renstrom 22:53.90 21:42.10 1:11.80
Ashley Larsen 22:53.90 24:48.20 ( 1:54.30 )
Hannah Jenkins 22:54.20 21:21.20 1:33.00
Sophie Childers 22:54.80 22:27.80 27.00
Brittany Frye 22:55.00 23:14.20 ( 19.20 )
Neve Black 22:55.80 20:34.40 2:21.40
Alexis Soper 22:56.59 22:03.00 53.59
Brynlee Jones 22:59.30 22:46.20 13.10
Amy Stevens 22:59.50 22:58.60 0.90
Samantha Priestley 23:00.10 23:10.60 ( 10.50 )
Mckenna Alger 23:00.10 21:50.90 1:09.20
Lindsey Bouwhuis 23:00.66 24:30.00 ( 1:29.34 )
Zoa Daigle 23:00.70 24:01.90 ( 1:01.20 )
Bethany Justice 23:01.00 21:17.30 1:43.70
Arianna Valerio 23:01.90 22:34.60 27.30
Venna Harrison 23:04.20 22:25.40 38.80
Ashley Rowe 23:05.06 23:15.80 ( 10.74 )
Emily Roberts 23:05.20 26:59.90 ( 3:54.70 )
Sicily Willard 23:05.20 24:36.68 ( 1:31.48 )
Diantha Williamson 23:07.00 22:42.50 24.50
Cheyanne Maughan 23:07.10 24:43.43 ( 1:36.33 )
Mariah McDonald 23:07.70 21:07.80 1:59.90
Victoria Weser 23:07.80 24:36.60 ( 1:28.80 )
Corinne Wilkinson 23:07.90 25:45.60 ( 2:37.70 )
Chloe Lunt 23:08.40 20:47.60 2:20.80
Carilyn Pointer 23:08.70 22:24.00 44.70
Hannah Mcgurk 23:08.97 21:02.80 2:06.17
Natalee Peterson 23:09.70 23:26.50 ( 16.80 )
Hallie Palmer 23:09.80 22:35.40 34.40
Hannah Mayrin 23:10.60 25:40.50 ( 2:29.90 )
Gabby Huntsman 23:11.40 24:44.50 ( 1:33.10 )
Kiara Toscano 23:11.60 24:53.10 ( 1:41.50 )
Eliza Albrecht 23:12.10 20:54.70 2:17.40
Megan Swasey 23:12.80 24:03.60 ( 50.80 )
Lochlyn Abbott 23:14.40 23:53.80 ( 39.40 )
Jessica Vick 23:14.80 23:34.90 ( 20.10 )
Lauren Dirks 23:15.10 21:44.30 1:30.80
Adelaide Anderson 23:17.00 22:37.50 39.50
Seanne Smith 23:17.90 20:54.10 2:23.80
Kenadie Neel 23:18.40 22:43.69 34.71
Emma Tadler 23:18.80 25:20.60 ( 2:01.80 )
Callie Woolstenhulme 23:18.90 24:24.80 ( 1:05.90 )
Rachel Thomas 23:19.80 23:28.00 ( 8.20 )
Dykell Jones 23:19.80 23:10.78 9.02
Joelle Werlinger 23:20.90 23:29.40 ( 8.50 )
Fiona Ambrose 23:21.40 20:47.00 2:34.40
Larissa Orison 23:22.00 21:42.00 1:40.00
Reagan Sedgwick 23:22.10 22:08.20 1:13.90
Adriana Austin 23:22.50 23:21.50 1.00
Megan Seamons 23:22.90 24:04.00 ( 41.10 )
Rosy Stoddard 23:23.70 21:53.00 1:30.70
Amber Checketts 23:24.30 23:48.34 ( 24.04 )
Ashlynn Slade 23:25.00 23:54.70 ( 29.70 )
Morgan Allen 23:25.00 23:01.40 23.60
Leah Mendenhall 23:25.40 23:51.10 ( 25.70 )
Mikyla Dance 23:25.70 22:30.00 55.70
Lauren Thomson 23:26.00 21:17.60 2:08.40
Mckenna Brackett 23:26.90 25:36.10 ( 2:09.20 )
Haley Maki 23:27.10 22:20.60 1:06.50
Aubrey Carrick 23:27.20 22:48.60 38.60
River Hancey 23:27.50 23:34.60 ( 7.10 )
Joy Parker 23:27.90 23:29.90 ( 2.00 )
Brooklyn Taylor 23:28.50 22:46.00 42.50
Makenzie Stokes 23:28.70 23:00.21 28.49
Kathrin Nixon 23:29.10 23:35.88 ( 6.78 )
Mercedes Zunich 23:29.90 27:14.08 ( 3:44.18 )
Ashley Hortin 23:30.00 25:03.40 ( 1:33.40 )
Rebecca Cornell 23:30.30 22:36.40 53.90
Courtney Vanderwerken 23:31.70 22:49.10 42.60
Shundean Begay 23:32.55 26:07.12 ( 2:34.57 )
Chelda Lunt 23:33.18 23:24.40 8.78
Makayla Lear 23:33.50 21:59.10 1:34.40
Megan Mathews 23:33.80 22:01.00 1:32.80
Emily Cannegieter 23:34.40 23:10.00 24.40
Sarah Marble 23:34.40 24:23.00 ( 48.60 )
Abigail Bankhead 23:35.50 22:38.10 57.40
Alesha Turnbow 23:37.85 21:05.20 2:32.65
Anavae Remetio 23:38.15 23:23.12 15.03
Aly Vanderwilt 23:38.30 23:57.00 ( 18.70 )
Lina Biasi 23:39.20 24:26.66 ( 47.46 )
Breeley Dallin 23:39.30 23:05.80 33.50
Stephanie Weller 23:40.20 24:25.80 ( 45.60 )
Megan Dennis 23:40.60 24:11.50 ( 30.90 )
Yanely Duenas 23:41.30 22:26.30 1:15.00
Martha Gill 23:43.30 24:50.50 ( 1:07.20 )
Kianna Willie 23:43.53 24:15.71 ( 32.18 )
Kyla Edgar 23:44.50 24:40.80 ( 56.30 )
Tara Jones 23:45.00 23:59.20 ( 14.20 )
Madeline Wright 23:46.00 23:40.80 5.20
Brianne Beard 23:46.30 22:04.40 1:41.90
Leeza Tymofichuk 23:46.40 31:14.10 ( 7:27.70 )
Jade Garcia 23:47.20 23:01.10 46.10
Yve Scribner 23:47.80 22:44.90 1:02.90
Madison Rowley 23:48.00 23:46.30 1.70
Harmony Tayler 23:48.30 25:43.70 ( 1:55.40 )
Jael Hymas 23:49.60 25:53.00 ( 2:03.40 )
Kennedy Brewer 23:51.21 24:05.40 ( 14.19 )
Heidi Sundberg 23:51.40 23:15.60 35.80
Audrey Westwood 23:51.70 22:23.20 1:28.50
Gabby Mason 23:51.91 22:03.30 1:48.61
Claire Booth 23:52.10 21:42.20 2:09.90
Kate Chatfield 23:53.00 21:53.40 1:59.60
Isabelle Ramos 23:53.40 20:59.50 2:53.90
Kirstin Williams 23:53.60 23:54.80 ( 1.20 )
Amelia Richins 23:53.90 26:26.90 ( 2:33.00 )
Sagelyn Shoell 23:55.34 22:04.00 1:51.34
Millie Cox 23:56.00 23:39.00 17.00
Georgianna Arnell 23:56.80 23:58.10 ( 1.30 )
Anna Nelson 23:58.70 23:55.00 3.70
Adriana Cluff 23:59.80 24:03.00 ( 3.20 )
Julia Anderson 24:00.00 22:47.50 1:12.50
Acelyn Fuentes 24:00.00 23:40.30 19.70
Ellie Anderson 24:01.15 21:25.15 2:36.00
Morgan Platt 24:01.60 22:41.10 1:20.50
Allison King 24:02.20 23:20.60 41.60
Eliza Allen 24:02.20 22:34.20 1:28.00
Sydney Cockerhan 24:02.81 24:03.56 ( 0.75 )
Mary Case 24:03.90 24:48.00 ( 44.10 )
Karlee Thomas 24:03.90 25:46.80 ( 1:42.90 )
MacKenzie Bingham 24:05.00 20:20.10 3:44.90
Alexandra Solum 24:05.30 22:36.10 1:29.20
Jessie Glover 24:06.80 22:37.30 1:29.50
Holly Bingham 24:07.06 23:39.37 27.69
Whitnee Sowa 24:07.20 26:56.00 ( 2:48.80 )
Joanni Begay 24:07.20 22:54.00 1:13.20
Anya Weglarz 24:07.50 22:08.90 1:58.60
Abbie Bullock 24:07.80 26:39.70 ( 2:31.90 )
Emma Burnham 24:09.10 24:05.20 3.90
Rianna Holland 24:09.20 24:47.60 ( 38.40 )
Caitlyn Buss 24:10.00 23:42.00 28.00
Jaynee Chee 24:10.16 24:20.46 ( 10.30 )
Greta Sunderlage 24:10.30 24:15.00 ( 4.70 )
Shannon Lunt 24:10.40 22:58.00 1:12.40
Amy Harvey 24:10.40 23:30.60 39.80
Pearl Marden 24:10.50 24:09.00 1.50
Carli Heslop 24:11.80 23:56.88 14.92
Lauren Adams 24:12.20 22:21.20 1:51.00
Kenzie Cloward 24:12.70 25:22.30 ( 1:09.60 )
Naomi Tebben 24:13.80 23:18.30 55.50
Hailey Hilliard 24:14.10 24:20.40 ( 6.30 )
Brianna Dechet 24:15.10 21:32.90 2:42.20
Brynlie Goodliffe 24:16.30 22:46.10 1:30.20
Naomi Hymas 24:17.40 24:43.20 ( 25.80 )
Kennedy Foster 24:18.30 25:23.60 ( 1:05.30 )
Rylee Bateman 24:18.34 22:52.90 1:25.44
Elizabeth Vogel 24:19.20 23:34.30 44.90
Emily Stark 24:19.31 25:59.97 ( 1:40.66 )
Emma Buchanan 24:19.70 24:58.30 ( 38.60 )
Emily Morris 24:19.80 25:03.50 ( 43.70 )
Savannah Withers 24:20.00 27:13.70 ( 2:53.70 )
Kayli Baker 24:21.00 24:23.18 ( 2.18 )
Emily Liddiard 24:21.30 24:21.90 ( 0.60 )
Emma Larkin 24:22.00 23:38.50 43.50
Bridget Johnston 24:22.50 22:29.20 1:53.30
Kaya Heideman 24:22.50 23:09.30 1:13.20
Attalie Lunt 24:22.60 25:06.40 ( 43.80 )
Khari Cox 24:23.20 22:18.97 2:04.23
Leah Thackeray 24:23.20 23:01.44 1:21.76
Ally Smith 24:23.30 23:36.00 47.30
Kristina Deshazo-Pezold 24:24.80 23:16.20 1:08.60
Holly Hays 24:24.91 21:35.00 2:49.91
Heidi Thurman 24:25.00 24:15.31 9.69
Emily Baadsgaard 24:25.30 27:05.50 ( 2:40.20 )
Abbi Bullock 24:25.52 23:49.30 36.22
Madilyn Butler 24:26.18 23:52.81 33.37
Gwendolyn Stewart 24:26.40 25:21.20 ( 54.80 )
Erica Anderson 24:27.60 29:12.60 ( 4:45.00 )
Paige Demarco 24:29.10 24:06.00 23.10
Hailey Smith 24:29.30 22:42.50 1:46.80
Vanessa Do 24:29.53 24:39.90 ( 10.37 )
Emmalee Hendry 24:29.70 24:16.60 13.10
Katelynn Mercer 24:30.00 26:05.20 ( 1:35.20 )
Kangie Bundy 24:30.10 23:59.31 30.79
Abby Van De Graaff 24:30.60 24:51.10 ( 20.50 )
Savannah Johnson 24:31.90 23:51.20 40.70
Sarah Jex 24:32.30 24:09.10 23.20
Elaina Desmond 24:32.70 25:04.40 ( 31.70 )
Savannah Wood 24:32.90 23:35.00 57.90
Krista Van Valkenb 24:34.00 24:09.80 24.20
Catherine Petersen 24:34.70 25:38.60 ( 1:03.90 )
Reagan Wexels 24:35.20 24:18.70 16.50
Jayda Thayn 24:35.30 20:37.00 3:58.30
Autumn Hancock 24:35.70 23:35.60 1:00.10
Mary Ipson 24:35.90 24:55.75 ( 19.85 )
Rosana Martinez 24:36.00 25:19.90 ( 43.90 )
Yrene Heinze 24:38.00 23:18.30 1:19.70
Ryleigh Startup 24:38.10 25:42.50 ( 1:04.40 )
Natalie Haufe 24:38.70 23:46.90 51.80
Sheridan Backus 24:39.00 23:04.80 1:34.20
Mya Jacobs 24:41.40 25:06.60 ( 25.20 )
Emily Dalley 24:41.60 26:19.60 ( 1:38.00 )
Ramsey Anderson 24:42.10 24:29.00 13.10
Abigayle Erickson 24:43.50 23:44.60 58.90
Emelie Burgon 24:43.50 24:17.60 25.90
Kendra Burnett 24:43.72 26:23.90 ( 1:40.18 )
Rayne Kenworthy 24:44.00 23:48.80 55.20
Gaby Sutherland 24:44.00 24:04.70 39.30
Lucy Horne 24:45.40 23:57.60 47.80
Alana Buckman 24:46.40 22:17.90 2:28.50
Lexie Owens 24:46.50 21:44.80 3:01.70
Emma Egan 24:46.60 25:53.69 ( 1:07.09 )
Kayla Benedict 24:46.62 25:11.65 ( 25.03 )
Grace Christensen 24:46.70 25:12.00 ( 25.30 )
Haylee Hobbs 24:48.00 22:20.70 2:27.30
Brooklyn Eardley 24:48.10 23:54.50 53.60
Mckenzie Stokes 24:48.30 23:07.80 1:40.50
Taylor Melvin 24:48.81 23:05.90 1:42.91
Sefia Thoreson 24:49.09 23:26.90 1:22.19
Kathryn Weaver 24:49.50 23:39.82 1:09.68
Samatha Hotton 24:50.50 26:32.41 ( 1:41.91 )
Sarah Winn 24:50.60 24:32.10 18.50
Hailee Sickler 24:51.50 22:33.20 2:18.30
Jenna Losee 24:51.70 26:44.80 ( 1:53.10 )
Samantha Hotton 24:52.30 26:51.00 ( 1:58.70 )
Alyssa Greer 24:52.90 22:59.20 1:53.70
Bella Strang 24:53.94 25:35.84 ( 41.90 )
Elizabeth Johnson 24:55.00 24:14.09 40.91
Karrissa Lemmon 24:56.00 23:27.20 1:28.80
Taryn Pistorius 24:56.21 25:32.10 ( 35.89 )
Morgan Newkirk 24:58.60 25:14.10 ( 15.50 )
Maren Rawlins 25:00.00 23:39.00 1:21.00
Taylor Janis 25:01.60 23:54.20 1:07.40
Ellie Nevers 25:03.40 26:06.50 ( 1:03.10 )
Paige Taylor 25:04.46 21:13.00 3:51.46
Hailee Pearson 25:05.00 25:41.38 ( 36.38 )
Hera Schick 25:05.90 25:25.50 ( 19.60 )
Madyson Childs 25:06.60 25:57.40 ( 50.80 )
Addison Westwood 25:09.00 24:35.90 33.10
Alexandria Taylor 25:10.10 26:07.00 ( 56.90 )
Belle Bennett 25:11.00 23:14.00 1:57.00
Tiffany Cannon 25:12.70 22:55.18 2:17.52
Joann Linford 25:13.90 26:41.70 ( 1:27.80 )
Taleya Moat 25:14.10 24:26.20 47.90
Brenna Utley 25:14.80 28:39.30 ( 3:24.50 )
Maile Webb 25:16.00 23:30.40 1:45.60
Annalee Garner 25:16.03 24:19.25 56.78
Paris Snow 25:16.20 28:19.10 ( 3:02.90 )
Sophia Andrus 25:16.30 24:00.90 1:15.40
Megan Liddiard 25:16.70 25:15.60 1.10
Emily Erekson 25:18.50 24:19.00 59.50
Elizabeth Brown 25:19.50 24:58.90 20.60
Elisabeth Heslop 25:19.88 25:11.38 8.50
Nicole Parkin 25:20.10 21:01.00 4:19.10
Anna Roberts 25:20.30 25:09.60 10.70
Katelyn Simmons 25:21.50 28:11.52 ( 2:50.02 )
Klarissa Hugh 25:21.80 26:48.40 ( 1:26.60 )
Bella Moses 25:22.00 23:48.60 1:33.40
Elizabeth Ashcraft 25:22.10 27:00.40 ( 1:38.30 )
Kyrene Benfield 25:23.00 25:00.70 22.30
Delaney Miller 25:23.10 26:36.50 ( 1:13.40 )
Leah Groberg 25:26.50 25:28.30 ( 1.80 )
Jessica Hawkins 25:26.60 23:47.10 1:39.50
Raegan Romney 25:26.70 26:06.00 ( 39.30 )
Macy Griffin 25:27.40 23:27.46 1:59.94
Emma Harris 25:27.60 26:33.80 ( 1:06.20 )
Mckayla Young 25:28.80 29:43.50 ( 4:14.70 )
Ashlyn Gatherim 25:29.10 26:24.00 ( 54.90 )
Cassidie Higbee 25:29.40 25:31.90 ( 2.50 )
Abby Khatri 25:30.70 27:55.70 ( 2:25.00 )
Abigail Hatch 25:30.80 28:14.70 ( 2:43.90 )
Elizabeth Lund 25:31.03 22:02.40 3:28.63
Julie Bankhead 25:32.00 26:54.10 ( 1:22.10 )
Abigail Anderson 25:32.10 23:44.18 1:47.92
Mallory Goodrich 25:33.20 25:02.60 30.60
Shelby Murray 25:33.69 24:46.90 46.79
London Kay 25:34.31 23:09.60 2:24.71
Malia Sellers 25:37.30 25:27.20 10.10
Kierra Oyler 25:37.90 29:33.90 ( 3:56.00 )
Morgan Anderson 25:40.20 23:27.30 2:12.90
Melissa Giles 25:40.60 22:42.80 2:57.80
Madison Pitts 25:42.30 25:14.50 27.80
Gillian Perkins 25:42.50 27:55.20 ( 2:12.70 )
Krystal Hulet 25:43.10 26:11.00 ( 27.90 )
Emily Malouf 25:43.70 23:17.50 2:26.20
Ashlynn Wheelwright 25:45.10 25:00.00 45.10
Noelle Burton 25:45.30 25:04.80 40.50
Brooke Anderson 25:46.00 24:46.70 59.30
Ruby Sibul 25:46.20 25:38.80 7.40
Juliana Barber 25:46.30 24:57.10 49.20
Breanna Bratton 25:46.90 25:54.10 ( 7.20 )
Malue Moller 25:47.90 27:02.40 ( 1:14.50 )
Emma Oliver 25:48.00 22:17.00 3:31.00
Lauren Brown 25:48.24 22:04.60 3:43.64
Kate Roney 25:52.40 31:08.20 ( 5:15.80 )
Maya Ekstrom 25:52.70 24:01.40 1:51.30
Rebekah Jardine 25:54.50 24:16.10 1:38.40
Kylie Felt 25:54.50 25:16.70 37.80
Adia Johnson 25:56.30 25:03.30 53.00
Kelley Degraaf 25:59.30 26:19.40 ( 20.10 )
Charlotte Weintz 25:59.34 24:23.00 1:36.34
Hallie Steele 26:02.70 24:20.60 1:42.10
Phoebe Clark 26:03.00 24:45.40 1:17.60
Katelyn Munford 26:03.40 27:02.30 ( 58.90 )
Jaiden Taylor 26:03.50 22:33.50 3:30.00
Ivy Cluster 26:05.10 22:34.60 3:30.50
Abigail Grundy 26:06.59 26:55.60 ( 49.01 )
Lexie Leavitt 26:06.70 26:48.25 ( 41.55 )
Avery Wiberg 26:06.90 26:35.90 ( 29.00 )
Mika John 26:11.07 24:13.50 1:57.57
Krista Van Valkenburgh 26:14.40 25:34.50 39.90
Calli Rowley 26:14.50 23:32.80 2:41.70
Osiris Astorga 26:15.00 29:28.80 ( 3:13.80 )
Brynn Hart 26:16.50 25:11.00 1:05.50
Elizabeth Walker 26:16.60 26:53.80 ( 37.20 )
Lauren Bell 26:19.10 23:51.30 2:27.80
Hannah Ferrell 26:21.30 24:46.20 1:35.10
Yixiao Burke 26:21.80 25:47.50 34.30
Cassidy Chamberlain 26:21.90 22:46.00 3:35.90
Myley George 26:22.10 29:24.80 ( 3:02.70 )
Gabrielle Walton 26:25.20 25:56.00 29.20
Astasia Gomez 26:26.50 22:30.90 3:55.60
Paige Stansfield 26:28.70 22:09.30 4:19.40
Rachel Frei 26:29.30 27:28.12 ( 58.82 )
Dixie Pierce 26:32.20 29:31.30 ( 2:59.10 )
Kari Evans 26:33.92 22:45.30 3:48.62
Emily Child 26:35.22 22:12.66 4:22.56
Atlantis Platt 26:38.22 26:59.72 ( 21.50 )
Kassidy Babcock 26:38.50 24:51.81 1:46.69
Taegen Ure 26:39.80 25:28.10 1:11.70
Kaycee Longhurst 26:41.70 23:12.30 3:29.40
Lyndee Day 26:42.00 26:31.00 11.00
Brynn Hull 26:43.38 24:38.00 2:05.38
Kelsey Owens 26:43.50 21:25.20 5:18.30
Heather Badger 26:44.00 24:36.50 2:07.50
Ariana Paul 26:44.30 25:11.70 1:32.60
Zoe Jarvis 26:44.80 24:59.30 1:45.50
Aubrey Moulton 26:50.00 25:07.70 1:42.30
Amelia Jarvis 26:51.50 23:50.50 3:01.00
Alyssa Goldthorpe 26:51.80 25:33.70 1:18.10
Kaili Osai 26:51.90 29:58.30 ( 3:06.40 )
Bailey Orton 26:52.10 26:53.60 ( 1.50 )
Jana Miller 26:53.70 27:39.30 ( 45.60 )
Emilee Price 26:53.90 26:10.60 43.30
Isabeau Witkowski 26:56.60 26:50.80 5.80
Julie Curcio 26:56.72 30:12.00 ( 3:15.28 )
Aspyn Bedingfield 26:57.34 23:44.50 3:12.84
Vanessa Delgado 26:58.10 26:06.40 51.70
Tasiah Little 26:58.20 29:24.43 ( 2:26.23 )
Jillian Tillett 26:59.80 29:57.80 ( 2:58.00 )
Brooklyn Wilson 27:00.30 26:06.10 54.20
Lydia Schoenfeld 27:00.70 23:31.50 3:29.20
Ann Seo 27:02.60 24:47.30 2:15.30
Kaitlyn Slade 27:05.20 27:43.00 ( 37.80 )
Avery Staheli 27:05.20 23:39.30 3:25.90
Emily Bertola 27:05.50 24:42.60 2:22.90
Kyra Feland 27:06.10 24:17.50 2:48.60
Carla Prat 27:07.90 27:19.00 ( 11.10 )
Kylee Herrick 27:09.10 28:57.30 ( 1:48.20 )
Karisa Shoemaker 27:12.30 28:12.60 ( 1:00.30 )
Olivia White 27:13.06 26:53.20 19.86
Kaylee Chatfield 27:14.20 29:23.20 ( 2:09.00 )
Emily Jorgensen 27:15.56 23:56.20 3:19.36
Sienna Hallows 27:16.40 26:19.30 57.10
Shalyce Gardner 27:16.60 27:20.10 ( 3.50 )
Emma Searle 27:17.00 29:18.80 ( 2:01.80 )
Elisabeth Issertell 27:18.10 29:20.30 ( 2:02.20 )
Gaby Alba 27:19.60 26:39.60 40.00
Breanne Hancock 27:24.60 28:52.70 ( 1:28.10 )
Hattie Cavin 27:29.10 23:16.00 4:13.10
Emma Peterson 27:30.40 24:25.10 3:05.30
Beca Hale 27:31.90 30:15.20 ( 2:43.30 )
Megan Sloan 27:35.68 27:26.80 8.88
Tianna Corpuz 27:35.70 21:43.30 5:52.40
Cadence Critchlow 27:39.30 29:08.70 ( 1:29.40 )
Ragen Jolley 27:40.00 22:58.60 4:41.40
Shanda Casas 27:42.70 23:30.70 4:12.00
Abrielle Frehner 27:44.00 24:31.50 3:12.50
Brekke Pattison 27:45.40 25:22.90 2:22.50
Laura Pederson 27:46.60 28:23.70 ( 37.10 )
Brianna Brady 27:49.90 24:34.80 3:15.10
Izzy Ramos 27:53.54 21:08.97 6:44.57
Rylee Dorman 27:55.00 26:43.00 1:12.00
Hannah Graff 27:55.70 24:23.60 3:32.10
Jaelynn Heaton 27:58.10 28:38.90 ( 40.80 )
Elise Willits 27:59.00 26:39.10 1:19.90
Llljana Richards 27:59.28 31:25.30 ( 3:26.02 )
Elizabeth Seegmiller 27:59.70 29:38.30 ( 1:38.60 )
Miriam Strain 28:03.40 25:43.20 2:20.20
Britlie Sharp 28:04.00 26:33.50 1:30.50
Julie Harris 28:04.15 28:28.90 ( 24.75 )
Jasmine Ruales 28:07.10 27:01.20 1:05.90
Leilani Ford 28:10.40 27:38.60 31.80
Ava Vanmoorlehem 28:16.60 25:42.80 2:33.80
Lindsay Christensen 28:16.90 33:36.80 ( 5:19.90 )
Melody Wooten 28:20.10 22:59.80 5:20.30
Emma Butler 28:20.80 28:44.10 ( 23.30 )
Avery Brown 28:21.20 23:54.50 4:26.70
Kate Shapiro 28:27.80 29:18.10 ( 50.30 )
Baylie Brown 28:28.20 21:56.00 6:32.20
Alexa Watne 28:28.30 26:47.70 1:40.60
Courtney Phillips 28:30.10 29:39.10 ( 1:09.00 )
Suzanne Quinn 28:31.00 25:58.90 2:32.10
Heidi Ericksen 28:35.10 26:26.20 2:08.90
Ashlee Hall 28:36.50 22:58.50 5:38.00
Bailey Berntson 28:38.00 29:56.60 ( 1:18.60 )
Kyla Johnson 28:38.33 27:24.60 1:13.73
Ayla Mayrin 28:38.80 29:03.90 ( 25.10 )
Angela Brown 28:40.20 26:42.90 1:57.30
Caitlyn Carver 28:40.40 27:52.50 47.90
Phoebe Lund 28:46.70 27:20.48 1:26.22
Eleanor Smith 28:47.50 24:31.20 4:16.30
Carsen Poole 28:50.40 30:54.10 ( 2:03.70 )
Jessica Walker 28:50.90 26:33.30 2:17.60
Madison Tarbell 28:54.00 26:44.00 2:10.00
Halie Coates 28:56.80 29:35.06 ( 38.26 )
Bethany Nording 29:01.00 25:37.20 3:23.80
Caroline Jarvis 29:04.60 31:00.63 ( 1:56.03 )
Olivia Rigby 29:04.80 25:40.30 3:24.50
Amy Richards 29:12.10 28:34.80 37.30
Emma Lenhart 29:14.53 29:28.00 ( 13.47 )
Elizabeth Gardner 29:19.78 31:59.88 ( 2:40.10 )
Mckayla Black 29:28.20 29:18.30 9.90
Simone Driscoll 29:31.30 25:52.60 3:38.70
Emily Hernandez 29:38.70 25:24.40 4:14.30
Mary Jenkins 29:44.40 29:22.20 22.20
Aubrynn Lovell 29:45.50 28:10.80 1:34.70
Ellis Laker 29:49.00 27:50.40 1:58.60
Emily Kajma 29:53.10 28:09.10 1:44.00
Megan Petty 30:01.20 26:32.80 3:28.40
Jessica Taylor 30:02.50 28:45.90 1:16.60
Emily Spadafora 30:15.40 30:18.60 ( 3.20 )
Juliana Martinez 30:53.10 25:59.70 4:53.40
Katelyn Coates 30:56.40 32:13.60 ( 1:17.20 )
Kellie Munford 31:11.00 28:25.00 2:46.00
Nora Hanson 31:11.00 28:29.90 2:41.10
Ellie Seegmiller 31:13.00 33:12.77 ( 1:59.77 )
Rhiley Thomson 31:15.00 21:01.97 10:13.03
Casey Larsen 31:17.62 30:38.44 39.18
Morgan Schriever 31:18.90 24:10.10 7:08.80
Lauren Smith 31:23.75 27:27.90 3:55.85
Kaia Jay 31:24.20 34:44.90 ( 3:20.70 )
Calli Carnahan 31:30.00 26:20.80 5:09.20
Janessa Jenkins 31:35.40 24:11.30 7:24.10
Elise House 31:53.30 31:58.10 ( 4.80 )
Ella Holden 31:57.00 24:38.50 7:18.50
Rylee Bunnell 32:05.20 30:07.30 1:57.90
Catherine Wright 32:20.00 28:09.20 4:10.80
Lea Seo 32:26.80 27:47.70 4:39.10
Talia Dean 32:28.59 26:44.10 5:44.49
Kya Durrant 32:30.00 32:22.80 7.20
Ambree Lovell 32:47.30 32:36.80 10.50
Ashley Elwood 32:50.40 35:50.50 ( 3:00.10 )
Kenzie Hepworth 33:07.00 30:26.00 2:41.00
Faith Rowley 33:26.00 29:06.50 4:19.50
Mckenna Sorenson 33:29.70 28:57.00 4:32.70
Tiana Sam 34:00.00 29:49.50 4:10.50
Olivia Fairbanks 34:34.30 31:22.40 3:11.90
Layla Jenson 34:43.20 31:52.90 2:50.30
Allison Stasburg 34:45.87 32:28.50 2:17.37
Brynn Meredith 35:11.44 36:04.56 ( 53.12 )
Camille Britton 35:11.70 31:27.90 3:43.80
Savannah France 35:52.17 30:13.60 5:38.57
Kysa Johnson 36:08.10 32:45.70 3:22.40
Brinley Miles 36:10.00 40:28.90 ( 4:18.90 )
Jessica Begay 36:42.00 30:38.50 6:03.50
Olivia Fairanks 38:07.60 38:45.00 ( 37.40 )
Madison Pearson 38:33.70 32:34.50 5:59.20
Allison Flores 39:01.00 38:49.20 11.80
Sophie Rowley 39:05.00 31:53.90 7:11.10
Hannah Dansie 42:35.90 36:25.40 6:10.50
Brinley Christoffersen 1:07:55.00 27:29.01 40:25.99
Maximum 1:07:55.00 40:28.90 40:25.99
Median 42:21.10 28:32.75 13:14.04
Average 23:07.40 22:59.00 8.40
Minimum 16:47.20 16:36.60 ( 13:57.90 )
Comments